Flag for Norway Weather past 2 weeks in Fetsund, Norway

Now
56 °F

Cool.


Feels Like: 55 °F
Forecast: 51 / 54 °F
Wind: 6 mph from North

Location: Oslo-Blindern

Current Time: Sep 1, 2015 at 5:14:37 PM

Latest Report: Sep 1, 2015 at 4:00 PM


Visibility: N/A

Pressure: 29.86 "Hg

Humidity: 89%

Dew point: 53 °F

Location of FetsundLocation

Historic Weather in Fetsund — Graph

°F

Fetsund temperature yesterday

Maximum temperature yesterday: 69 °F (at 4:00 PM)
Minimum temperature yesterday: 53 °F (at 2:00 AM)
Average temperature yesterday: 60 °F

Past Weeks' High & Low Weather Summary

 TemperatureHumidityPressure
High77 °F (Aug 23, 5:00 PM)98% (Aug 28, 1:00 AM)30.37 "Hg (Aug 28, 1:00 AM)
Low47 °F (Aug 29, 6:00 AM)33% (Aug 22, 4:00 PM)29.47 "Hg (Aug 27, 5:00 PM)
Average62 °F70%30.03 "Hg
* Reported Aug 17 3:00 PM — Sep 1 3:00 PM, Fetsund, Weather by CustomWeather, © 2015

Note: Actual official high and low records may vary slightly from our data, if they occured in-between our weather recording intervals... More about our weather records

Advertising

Fetsund weather history for previous 24 hours

 ConditionsComfort  
Time TempWeatherWind HumidityBarometerVisibility
3:00 PM
Tue, Sep 1
56 °FCool.6 mph86%29.86 "HgN/A
2:00 PM58 °FLight rain. Overcast.6 mph79%29.87 "Hg40 mi
1:00 PM57 °FCool.6 mph80%29.88 "HgN/A
12:00 PM57 °FCool.6 mph79%29.89 "HgN/A
11:00 AM56 °FLight rain. Overcast.6 mph85%29.89 "Hg40 mi
10:00 AM55 °FCool.6 mph87%29.89 "HgN/A
9:00 AM54 °FCool.5 mph87%29.90 "HgN/A
8:00 AM56 °FCool.6 mph76%29.89 "HgN/A
7:00 AM57 °FCool.6 mph69%29.88 "HgN/A
6:00 AM58 °FCool.9 mph67%29.88 "HgN/A
4:00 AM58 °FCool.7 mph72%29.90 "HgN/A
3:00 AM59 °FCool.6 mph73%29.91 "HgN/A
2:00 AM58 °FOvercast.5 mph75%29.93 "Hg47 mi
1:00 AM58 °FCool.5 mph77%29.94 "HgN/A
12:00 AM58 °FCool.3 mph76%29.95 "HgN/A
10:00 PM
Mon, Aug 31
59 °FCool.2 mph73%29.96 "HgN/A
9:00 PM60 °FCool.2 mph74%29.96 "HgN/A
8:00 PM62 °FOvercast.2 mph71%29.97 "Hg43 mi
7:00 PM64 °FMild.1 mph58%29.96 "HgN/A
6:00 PM65 °FMild.2 mph57%29.97 "HgN/A
5:00 PM67 °FOvercast.2 mph58%29.98 "Hg43 mi
Weather by CustomWeather, © 2015

See weather overviewHow to use our weather pages